Time,TemperatureF,DewpointF,PressureIn,WindDirection,WindDirectionDegrees,WindSpeedMPH,WindSpeedGustMPH,Humidity,HourlyPrecipIn,Conditions,Clouds,dailyrainin,SoftwareType,DateUTC
2013-06-01 00:00:00,77.3,72.4,30.13,SE,135,7.0,14.0,85,0.00,,---,0.00,VWS V14.01,2013-06-01 04:00:00,
2013-06-01 01:00:00,77.0,72.2,30.11,SE,135,8.0,16.0,85,0.00,,---,0.00,VWS V14.01,2013-06-01 05:00:00,
2013-06-01 02:00:00,76.9,72.1,30.10,SE,135,8.0,18.0,85,0.00,,---,0.00,VWS V14.01,2013-06-01 06:00:00,
2013-06-01 03:00:00,76.7,71.9,30.08,SE,135,9.0,18.0,85,0.00,,---,0.00,VWS V14.01,2013-06-01 07:00:00,
2013-06-01 04:00:00,76.5,72.0,30.06,SE,135,8.0,16.0,86,0.00,,---,0.00,VWS V14.01,2013-06-01 08:00:00,
2013-06-01 05:00:00,76.5,72.0,30.05,SE,135,8.0,16.0,86,0.00,,---,0.00,VWS V14.01,2013-06-01 09:00:00,
2013-06-01 06:00:00,76.5,71.7,30.06,SE,135,8.0,16.0,85,0.00,,---,0.00,VWS V14.01,2013-06-01 10:00:00,
2013-06-01 07:00:00,76.5,71.3,30.08,SE,135,7.0,14.0,84,0.00,,---,0.00,VWS V14.01,2013-06-01 11:00:00,
2013-06-01 08:00:00,76.6,71.1,30.09,SE,135,7.0,15.0,83,0.00,,---,0.00,VWS V14.01,2013-06-01 12:00:00,
2013-06-01 09:00:00,77.8,71.9,30.10,SE,135,6.0,14.0,82,0.00,,---,0.00,VWS V14.01,2013-06-01 13:00:00,
2013-06-01 10:00:00,78.9,72.2,30.10,SE,135,6.0,14.0,80,0.00,,---,0.00,VWS V14.01,2013-06-01 14:00:00,
2013-06-01 11:00:00,80.0,72.5,30.11,SE,135,7.0,15.0,78,0.00,,---,0.00,VWS V14.01,2013-06-01 15:00:00,
2013-06-01 12:00:00,80.7,72.8,30.09,SE,135,7.0,15.0,77,0.00,,---,0.00,VWS V14.01,2013-06-01 16:00:00,
2013-06-01 13:00:00,81.6,73.3,30.10,SE,135,7.0,14.0,76,0.00,,---,0.00,VWS V14.01,2013-06-01 17:00:00,
2013-06-01 14:00:00,81.6,73.3,30.10,SE,135,7.0,15.0,76,0.00,,---,0.00,VWS V14.01,2013-06-01 18:00:00,
2013-06-01 15:00:00,81.6,72.9,30.09,SE,135,7.0,14.0,75,0.00,,---,0.00,VWS V14.01,2013-06-01 19:00:00,
2013-06-01 16:00:00,81.4,73.1,30.08,ESE,112,7.0,14.0,76,0.00,,---,0.00,VWS V14.01,2013-06-01 20:00:00,
2013-06-01 17:00:00,80.6,73.5,30.05,SE,135,8.0,16.0,79,0.00,,---,0.00,VWS V14.01,2013-06-01 21:00:00,
2013-06-01 18:00:00,80.6,73.5,30.05,SE,135,8.0,16.0,79,0.00,,---,0.00,VWS V14.01,2013-06-01 22:00:00,
2013-06-01 18:51:00,80.6,73.5,30.05,SE,135,8.0,16.0,79,0.00,,---,0.00,VWS V14.01,2013-06-01 22:51:00,
2013-06-01 18:56:00,79.0,73.4,30.04,SE,140,6.0,11.0,83,0.00,,---,0.00,VWS V14.01,2013-06-01 22:56:00,
2013-06-01 19:01:00,79.1,73.5,30.04,East,95,5.0,11.0,83,0.00,,---,0.00,VWS V14.01,2013-06-01 23:01:00,
2013-06-01 19:06:00,79.2,73.6,30.04,East,101,9.0,12.0,83,0.00,,---,0.00,VWS V14.01,2013-06-01 23:06:00,
2013-06-01 19:11:00,79.1,73.5,30.05,East,98,6.0,12.0,83,0.00,,---,0.00,VWS V14.01,2013-06-01 23:11:00,
2013-06-01 19:16:00,79.0,73.4,30.04,SE,136,6.0,12.0,83,0.00,,---,0.00,VWS V14.01,2013-06-01 23:16:00,
2013-06-01 19:21:00,78.6,73.4,30.04,SE,146,3.0,12.0,84,0.00,,---,0.00,VWS V14.01,2013-06-01 23:21:00,
2013-06-01 19:26:00,78.5,73.6,30.04,East,101,10.0,14.0,85,0.00,,---,0.00,VWS V14.01,2013-06-01 23:26:00,
2013-06-01 19:31:00,78.1,73.2,30.04,ESE,119,9.0,14.0,85,0.00,,---,0.00,VWS V14.01,2013-06-01 23:31:00,
2013-06-01 19:36:00,77.9,73.4,30.04,East,100,13.0,14.0,86,0.00,,---,0.00,VWS V14.01,2013-06-01 23:36:00,
2013-06-01 19:41:00,77.9,73.4,30.04,ESE,123,8.0,14.0,86,0.00,,---,0.00,VWS V14.01,2013-06-01 23:41:00,
2013-06-01 19:46:00,77.7,73.5,30.04,ESE,112,8.0,15.0,87,0.00,,---,0.00,VWS V14.01,2013-06-01 23:46:00,
2013-06-01 19:51:00,77.7,73.5,30.04,SE,126,5.0,15.0,87,0.00,,---,0.00,VWS V14.01,2013-06-01 23:51:00,
2013-06-01 19:56:00,77.5,73.3,30.04,ESE,107,8.0,15.0,87,0.00,,---,0.00,VWS V14.01,2013-06-01 23:56:00,
2013-06-01 20:00:00,79.1,73.5,30.04,ESE,122,5.0,11.0,83,0.00,,---,0.00,VWS V14.01,2013-06-02 00:00:00,
2013-06-01 20:01:00,77.5,73.3,30.04,ESE,121,8.0,11.0,87,0.00,,---,0.00,VWS V14.01,2013-06-02 00:01:00,
2013-06-01 20:06:00,77.6,73.4,30.04,ESE,115,7.0,11.0,87,0.00,,---,0.00,VWS V14.01,2013-06-02 00:06:00,
2013-06-01 20:11:00,77.5,73.7,30.04,East,90,8.0,12.0,88,0.00,,---,0.00,VWS V14.01,2013-06-02 00:11:00,
2013-06-01 20:16:00,77.4,73.6,30.04,SE,129,7.0,12.0,88,0.00,,---,0.00,VWS V14.01,2013-06-02 00:16:00,
2013-06-01 20:21:00,77.5,73.7,30.04,SSE,161,3.0,12.0,88,0.00,,---,0.00,VWS V14.01,2013-06-02 00:21:00,
2013-06-01 20:26:00,77.5,73.7,30.04,ESE,107,10.0,12.0,88,0.00,,---,0.00,VWS V14.01,2013-06-02 00:26:00,
2013-06-01 20:31:00,77.3,73.1,30.04,SE,126,4.0,13.0,87,0.00,,---,0.00,VWS V14.01,2013-06-02 00:31:00,
2013-06-01 20:36:00,77.3,73.1,30.04,SE,140,7.0,13.0,87,0.00,,---,0.00,VWS V14.01,2013-06-02 00:36:00,
2013-06-01 20:41:00,77.3,73.1,30.04,SE,127,6.0,13.0,87,0.00,,---,0.00,VWS V14.01,2013-06-02 00:41:00,
2013-06-01 20:46:00,77.5,73.3,30.04,SE,142,7.0,13.0,87,0.00,,---,0.00,VWS V14.01,2013-06-02 00:46:00,
2013-06-01 20:51:00,77.5,73.3,30.04,SSE,156,5.0,14.0,87,0.00,,---,0.00,VWS V14.01,2013-06-02 00:51:00,
2013-06-01 20:56:00,77.5,73.3,30.04,SSE,147,6.0,14.0,87,0.00,,---,0.00,VWS V14.01,2013-06-02 00:56:00,
2013-06-01 21:00:00,77.5,73.3,30.04,East,101,8.0,15.0,87,0.00,,---,0.00,VWS V14.01,2013-06-02 01:00:00,
2013-06-01 21:01:00,77.5,73.3,30.04,SE,136,8.0,12.0,87,0.00,,---,0.00,VWS V14.01,2013-06-02 01:01:00,
2013-06-01 22:00:00,77.5,73.3,30.04,SSE,154,12.0,14.0,87,0.00,,---,0.00,VWS V14.01,2013-06-02 02:00:00,
2013-06-01 23:00:00,77.6,73.1,30.06,SE,135,8.0,19.0,86,0.00,,---,0.00,VWS V14.01,2013-06-02 03:00:00,